Starlink 36489

operational
NORAD ID: 67328 Int'l Des: 2026-002 Owner: SPXS Country: US Constellation: starlink
NOTLE

About Starlink 36489

Description loading...

Live Position

Loading 3D Globe...

Upcoming Passes

Altitude History

Altitude vs Time

uPlot chart will show altitude changes over time

Two-Line Element Set

1 67328U 26002Z 26047.58335648 .00068459 00000-0 24769-2 0 9999
2 67328 43.0008 84.6466 0001374 283.8349 263.9501 15.27545947 5964
Epoch: Feb 16, 2026 • Age: 10 hours

Current Status

Altitude 485.7 km
Velocity 7.62 km/s
Sub-Earth Point -16.35°S, 83.86°W
Launch Date Jan 4, 2026
Age 0.1 years
Type internet

Technical Details

Classification Payload
Mass 575.00 kg
Dry Mass 530.00 kg
Total Mass 575.00 kg
Length 0.30 m
Diameter 4.10 m
Span 29.00 m
Shape Box + pan
Manufacturer SPXS
Bus Type Starlink V2MO
Phase Status In Orbit
Owner/State SPXS/US

Large Constellations

Loading constellations...